PDT,Max TemperatureF,Mean TemperatureF,Min TemperatureF,Max Dew PointF,MeanDew PointF,Min DewpointF,Max Humidity, Mean Humidity, Min Humidity, Max Sea Level PressureIn, Mean Sea Level PressureIn, Min Sea Level PressureIn, Max VisibilityMiles, Mean VisibilityMiles, Min VisibilityMiles, Max Wind SpeedMPH, Mean Wind SpeedMPH, Max Gust SpeedMPH,PrecipitationIn, CloudCover, Events, WindDirDegrees
2012-10-1,97,82,66,38,32,27,30,17,8,30.01,29.90,29.83,10,10,10,12,6,,0.00,0,,133
2012-10-2,99,82,65,35,29,23,29,16,7,29.88,29.80,29.72,10,10,10,14,9,,0.00,0,,188
2012-10-3,97,84,72,32,28,25,19,13,8,29.82,29.77,29.73,10,10,10,21,13,,0.00,0,,208
2012-10-4,90,82,73,35,33,30,23,18,11,29.90,29.84,29.79,10,10,10,20,14,,0.00,0,,201
2012-10-5,90,79,68,37,34,33,28,21,14,29.94,29.85,29.79,10,10,10,16,11,,0.00,0,,195
2012-10-6,88,78,68,36,32,25,28,20,13,29.86,29.79,29.73,10,10,10,14,8,,0.00,0,,175
2012-10-7,83,71,59,32,26,19,34,20,10,29.91,29.82,29.76,10,10,10,9,6,,0.00,0,,159
2012-10-8,88,74,61,34,29,24,29,20,11,29.86,29.79,29.73,10,10,10,14,8,,0.00,0,,179
2012-10-9,88,76,64,34,29,21,29,18,10,29.84,29.78,29.72,10,10,10,16,11,,0.00,0,,187
2012-10-10,82,72,62,57,46,28,80,48,20,29.93,29.82,29.74,10,10,6,23,9,34,0.09,3,Rain-Thunderstorm,180
2012-10-11,65,58,51,61,56,46,100,89,68,29.95,29.84,29.74,10,9,2,16,4,22,0.59,6,Rain-Thunderstorm,168
2012-10-12,65,58,50,49,45,41,89,68,42,30.01,29.91,29.83,10,10,10,15,5,,0.00,1,,205
2012-10-13,72,61,50,53,47,45,80,61,37,30.16,30.09,30.02,10,10,10,12,6,,0.00,0,,214
2012-10-14,81,68,54,52,47,40,86,53,24,30.18,30.08,30.01,10,10,10,10,3,,0.00,0,,90
2012-10-15,81,68,55,52,46,42,69,48,24,30.00,29.93,29.85,10,10,10,12,6,,0.00,0,,170
2012-10-16,86,70,55,47,42,37,69,36,17,29.88,29.78,29.68,10,10,10,13,8,,0.00,0,,198
2012-10-17,83,71,59,47,38,28,57,33,14,29.98,29.88,29.76,10,10,10,12,7,,0.00,0,,115
2012-10-18,81,66,52,36,28,19,52,27,10,30.06,30.00,29.94,10,10,10,12,5,,0.00,0,,159
2012-10-19,84,68,52,36,30,24,43,28,11,29.98,29.89,29.77,10,10,10,12,7,,0.00,0,,172
2012-10-20,86,70,54,37,32,28,42,26,13,29.77,29.68,29.58,10,10,10,15,9,,0.00,0,,189
2012-10-21,79,71,63,46,41,36,43,35,27,29.75,29.65,29.60,10,10,10,22,15,,0.00,0,,205
2012-10-22,77,70,63,43,37,33,48,31,19,29.73,29.69,29.65,10,10,10,32,21,36,0.00,0,,212
2012-10-23,72,64,57,43,29,14,54,30,11,29.76,29.72,29.68,10,10,10,32,23,,0.00,0,,209
2012-10-24,70,61,52,32,27,21,42,30,16,29.96,29.84,29.72,10,10,10,23,15,,0.00,0,,203
2012-10-25,69,57,45,27,23,17,48,26,14,30.17,30.05,29.97,10,10,10,13,6,,0.00,0,,55
2012-10-26,64,56,48,22,17,9,33,23,11,30.26,30.16,30.06,10,10,10,18,10,,0.00,0,,41
2012-10-27,73,58,43,26,19,14,37,24,11,30.07,30.00,29.94,10,10,10,9,4,,0.00,0,,169
2012-10-28,79,63,47,31,24,22,39,26,13,30.03,29.98,29.92,10,10,10,12,5,,0.00,0,,173
2012-10-29,79,64,48,32,28,25,41,27,15,30.10,30.02,29.98,10,10,10,10,6,,0.00,0,,176
2012-10-30,79,64,50,32,28,26,43,28,14,30.16,30.01,29.94,10,10,10,10,6,,0.00,0,,172
2012-10-31,79,64,50,32,29,26,43,28,15,30.01,29.93,29.86,10,10,10,12,6,,0.00,0,,159